Time,TemperatureF,DewpointF,PressureIn,WindDirection,WindDirectionDegrees,WindSpeedMPH,WindSpeedGustMPH,Humidity,HourlyPrecipIn,Conditions,Clouds,dailyrainin,SoftwareType,DateUTC
2013-03-16 00:02:00,58.0,44.0,29.73,WNW,289,0.0,0.0,59,0.00,,,0.00,,2013-03-16 05:02:00,
2013-03-16 00:12:00,58.0,44.0,29.73,WNW,289,0.0,0.0,59,0.00,,,0.00,,2013-03-16 05:12:00,
2013-03-16 00:22:00,58.0,44.0,29.73,WNW,289,0.0,0.0,59,0.00,,,0.00,,2013-03-16 05:22:00,
2013-03-16 00:32:00,57.0,43.0,29.73,WNW,288,0.0,1.0,60,0.00,,,0.00,,2013-03-16 05:32:00,
2013-03-16 00:42:00,57.0,43.0,29.73,WNW,288,0.0,1.0,60,0.00,,,0.00,,2013-03-16 05:42:00,
2013-03-16 00:53:00,57.0,43.0,29.74,WNW,288,0.0,3.0,60,0.00,,,0.00,,2013-03-16 05:53:00,
2013-03-16 01:02:00,58.0,43.0,29.75,NW,325,3.0,9.0,57,0.00,,,0.00,,2013-03-16 06:02:00,
2013-03-16 01:12:00,58.0,43.0,29.75,NW,325,3.0,9.0,57,0.00,,,0.00,,2013-03-16 06:12:00,
2013-03-16 01:22:00,57.0,41.0,29.76,NW,311,1.0,8.0,56,0.00,,,0.00,,2013-03-16 06:22:00,
2013-03-16 01:32:00,56.0,42.0,29.76,NW,317,4.0,9.0,59,0.00,,,0.00,,2013-03-16 06:32:00,
2013-03-16 01:42:00,56.0,42.0,29.76,NW,317,4.0,9.0,59,0.00,,,0.00,,2013-03-16 06:42:00,
2013-03-16 01:52:00,55.0,42.0,29.77,North,355,2.0,11.0,62,0.00,,,0.00,,2013-03-16 06:52:00,
2013-03-16 02:02:00,54.0,43.0,29.78,NNE,21,4.0,12.0,65,0.00,,,0.00,,2013-03-16 07:02:00,
2013-03-16 02:12:00,54.0,43.0,29.78,NNE,21,4.0,12.0,65,0.00,,,0.00,,2013-03-16 07:12:00,
2013-03-16 02:22:00,53.0,42.0,29.79,North,5,6.0,14.0,67,0.00,,,0.00,,2013-03-16 07:22:00,
2013-03-16 02:32:00,53.0,42.0,29.79,North,5,6.0,14.0,67,0.00,,,0.00,,2013-03-16 07:32:00,
2013-03-16 02:42:00,53.0,42.0,29.79,North,5,6.0,14.0,67,0.00,,,0.00,,2013-03-16 07:42:00,
2013-03-16 02:52:00,53.0,42.0,29.79,North,5,6.0,14.0,67,0.00,,,0.00,,2013-03-16 07:52:00,
2013-03-16 03:02:00,50.0,42.0,29.82,North,355,3.0,12.0,73,0.00,,,0.00,,2013-03-16 08:02:00,
2013-03-16 03:12:00,50.0,42.0,29.82,North,355,3.0,12.0,73,0.00,,,0.00,,2013-03-16 08:12:00,
2013-03-16 03:23:00,49.0,41.0,29.82,NNW,344,4.0,8.0,74,0.00,,,0.00,,2013-03-16 08:23:00,
2013-03-16 03:32:00,48.0,40.0,29.83,NNW,331,4.0,10.0,75,0.00,,,0.00,,2013-03-16 08:32:00,
2013-03-16 03:42:00,48.0,40.0,29.83,NNW,331,4.0,10.0,75,0.00,,,0.00,,2013-03-16 08:42:00,
2013-03-16 03:52:00,47.0,39.0,29.83,NNW,333,1.0,11.0,75,0.00,,,0.00,,2013-03-16 08:52:00,
2013-03-16 04:01:00,46.0,39.0,29.84,NW,320,2.0,9.0,75,0.00,,,0.00,,2013-03-16 09:01:00,
2013-03-16 04:12:00,46.0,39.0,29.84,NW,320,2.0,9.0,75,0.00,,,0.00,,2013-03-16 09:12:00,
2013-03-16 04:22:00,46.0,39.0,29.83,NW,325,3.0,8.0,76,0.00,,,0.00,,2013-03-16 09:22:00,
2013-03-16 04:33:00,45.0,38.0,29.84,NNW,346,1.0,8.0,76,0.00,,,0.00,,2013-03-16 09:33:00,
2013-03-16 04:42:00,45.0,38.0,29.84,NNW,346,1.0,8.0,76,0.00,,,0.00,,2013-03-16 09:42:00,
2013-03-16 04:52:00,44.0,37.0,29.85,NNW,331,1.0,6.0,77,0.00,,,0.00,,2013-03-16 09:52:00,
2013-03-16 05:03:00,44.0,37.0,29.86,NNW,327,4.0,10.0,77,0.00,,,0.00,,2013-03-16 10:03:00,
2013-03-16 05:12:00,44.0,37.0,29.86,NNW,327,4.0,10.0,77,0.00,,,0.00,,2013-03-16 10:12:00,
2013-03-16 05:22:00,43.0,37.0,29.87,NW,320,4.0,11.0,78,0.00,,,0.00,,2013-03-16 10:22:00,
2013-03-16 05:32:00,42.0,36.0,29.89,NNW,330,6.0,13.0,79,0.00,,,0.00,,2013-03-16 10:32:00,
2013-03-16 05:42:00,42.0,36.0,29.89,NNW,330,6.0,13.0,79,0.00,,,0.00,,2013-03-16 10:42:00,
2013-03-16 05:52:00,41.0,35.0,29.90,NNW,348,6.0,13.0,79,0.00,,,0.00,,2013-03-16 10:52:00,
2013-03-16 06:03:00,40.0,35.0,29.91,North,11,6.0,16.0,81,0.00,,,0.00,,2013-03-16 11:03:00,
2013-03-16 06:12:00,40.0,35.0,29.91,North,11,6.0,16.0,81,0.00,,,0.00,,2013-03-16 11:12:00,
2013-03-16 06:22:00,39.0,34.0,29.92,NW,315,6.0,15.0,81,0.00,,,0.00,,2013-03-16 11:22:00,
2013-03-16 06:32:00,38.0,33.0,29.94,NW,323,7.0,17.0,82,0.00,,,0.00,,2013-03-16 11:32:00,
2013-03-16 06:42:00,38.0,33.0,29.94,NW,323,7.0,17.0,82,0.00,,,0.00,,2013-03-16 11:42:00,
2013-03-16 06:52:00,38.0,33.0,29.94,North,355,5.0,19.0,83,0.00,,,0.00,,2013-03-16 11:52:00,
2013-03-16 07:02:00,37.0,32.0,29.95,NNW,337,5.0,16.0,83,0.00,,,0.00,,2013-03-16 12:02:00,
2013-03-16 07:12:00,37.0,32.0,29.95,NNW,337,5.0,16.0,83,0.00,,,0.00,,2013-03-16 12:12:00,
2013-03-16 07:22:00,37.0,32.0,29.96,NNW,344,6.0,17.0,83,0.00,,,0.00,,2013-03-16 12:22:00,
2013-03-16 07:32:00,37.0,32.0,29.97,North,9,5.0,20.0,83,0.00,,,0.00,,2013-03-16 12:32:00,
2013-03-16 07:42:00,37.0,32.0,29.97,North,9,5.0,20.0,83,0.00,,,0.00,,2013-03-16 12:42:00,
2013-03-16 07:52:00,37.0,32.0,29.96,North,10,6.0,14.0,83,0.00,,,0.00,,2013-03-16 12:52:00,
2013-03-16 08:02:00,37.0,32.0,29.96,NNE,19,7.0,19.0,83,0.00,,,0.00,,2013-03-16 13:02:00,
2013-03-16 08:12:00,37.0,32.0,29.96,NNE,19,7.0,19.0,83,0.00,,,0.00,,2013-03-16 13:12:00,
2013-03-16 08:22:00,37.0,32.0,29.96,North,360,7.0,19.0,83,0.00,,,0.00,,2013-03-16 13:22:00,
2013-03-16 08:32:00,37.0,32.0,29.96,NNE,26,4.0,17.0,83,0.00,,,0.00,,2013-03-16 13:32:00,
2013-03-16 08:42:00,37.0,32.0,29.96,NNE,26,4.0,17.0,83,0.00,,,0.00,,2013-03-16 13:42:00,
2013-03-16 08:52:00,37.0,32.0,29.97,East,89,4.0,17.0,83,0.00,,,0.00,,2013-03-16 13:52:00,
2013-03-16 09:02:00,37.0,32.0,29.98,NE,34,5.0,16.0,82,0.00,,,0.00,,2013-03-16 14:02:00,
2013-03-16 09:12:00,37.0,32.0,29.98,NE,34,5.0,16.0,82,0.00,,,0.00,,2013-03-16 14:12:00,
2013-03-16 09:22:00,38.0,33.0,29.99,NNE,31,0.0,14.0,81,0.00,,,0.00,,2013-03-16 14:22:00,
2013-03-16 09:32:00,38.0,33.0,30.01,North,10,5.0,12.0,81,0.00,,,0.00,,2013-03-16 14:32:00,
2013-03-16 09:42:00,38.0,33.0,30.01,North,10,5.0,12.0,81,0.00,,,0.00,,2013-03-16 14:42:00,
2013-03-16 09:52:00,38.0,33.0,30.01,NE,45,3.0,12.0,81,0.00,,,0.00,,2013-03-16 14:52:00,
2013-03-16 10:02:00,38.0,32.0,30.01,NNE,26,6.0,15.0,78,0.00,,,0.00,,2013-03-16 15:02:00,
2013-03-16 10:12:00,38.0,32.0,30.01,NNE,26,6.0,15.0,78,0.00,,,0.00,,2013-03-16 15:12:00,
2013-03-16 10:22:00,38.0,32.0,30.03,NE,40,4.0,17.0,78,0.00,,,0.00,,2013-03-16 15:22:00,
2013-03-16 10:33:00,38.0,32.0,30.03,North,349,5.0,15.0,78,0.00,,,0.00,,2013-03-16 15:33:00,
2013-03-16 10:43:00,38.0,32.0,30.03,North,349,5.0,15.0,78,0.00,,,0.00,,2013-03-16 15:43:00,
2013-03-16 10:52:00,38.0,32.0,30.03,North,11,7.0,14.0,78,0.00,,,0.00,,2013-03-16 15:52:00,
2013-03-16 11:03:00,40.0,33.0,30.03,NE,38,7.0,15.0,76,0.00,,,0.00,,2013-03-16 16:03:00,
2013-03-16 11:12:00,40.0,33.0,30.03,NE,38,7.0,15.0,76,0.00,,,0.00,,2013-03-16 16:12:00,
2013-03-16 11:22:00,40.0,33.0,30.03,NE,38,7.0,15.0,76,0.00,,,0.00,,2013-03-16 16:22:00,
2013-03-16 11:33:00,39.0,31.0,30.04,North,350,4.0,18.0,74,0.00,,,0.00,,2013-03-16 16:33:00,
2013-03-16 11:42:00,39.0,31.0,30.04,North,350,4.0,18.0,74,0.00,,,0.00,,2013-03-16 16:42:00,
2013-03-16 11:53:00,39.0,32.0,30.04,NNE,28,4.0,12.0,75,0.00,,,0.00,,2013-03-16 16:53:00,
2013-03-16 12:03:00,39.0,31.0,30.05,North,9,4.0,12.0,73,0.00,,,0.00,,2013-03-16 17:03:00,
2013-03-16 12:12:00,39.0,31.0,30.05,North,9,4.0,12.0,73,0.00,,,0.00,,2013-03-16 17:12:00,
2013-03-16 12:23:00,39.0,31.0,30.07,NW,314,2.0,11.0,74,0.00,,,0.00,,2013-03-16 17:23:00,
2013-03-16 12:32:00,39.0,31.0,30.06,East,101,4.0,13.0,73,0.00,,,0.00,,2013-03-16 17:32:00,
2013-03-16 12:42:00,39.0,31.0,30.06,East,101,4.0,13.0,73,0.00,,,0.00,,2013-03-16 17:42:00,
2013-03-16 12:52:00,40.0,32.0,30.06,East,96,2.0,9.0,72,0.00,,,0.00,,2013-03-16 17:52:00,
2013-03-16 13:02:00,41.0,32.0,30.06,North,11,5.0,14.0,69,0.00,,,0.00,,2013-03-16 18:02:00,
2013-03-16 13:13:00,41.0,32.0,30.06,North,11,5.0,14.0,69,0.00,,,0.00,,2013-03-16 18:13:00,
2013-03-16 13:22:00,41.0,31.0,30.07,NE,44,2.0,11.0,68,0.00,,,0.00,,2013-03-16 18:22:00,
2013-03-16 13:33:00,42.0,31.0,30.06,NE,55,6.0,13.0,66,0.00,,,0.00,,2013-03-16 18:33:00,
2013-03-16 13:42:00,42.0,31.0,30.06,NE,55,6.0,13.0,66,0.00,,,0.00,,2013-03-16 18:42:00,
2013-03-16 13:52:00,42.0,31.0,30.06,East,90,4.0,12.0,65,0.00,,,0.00,,2013-03-16 18:52:00,
2013-03-16 14:02:00,42.0,31.0,30.06,North,11,5.0,13.0,65,0.00,,,0.00,,2013-03-16 19:02:00,
2013-03-16 14:12:00,42.0,31.0,30.06,North,11,5.0,13.0,65,0.00,,,0.00,,2013-03-16 19:12:00,
2013-03-16 14:22:00,42.0,31.0,30.06,NNE,14,5.0,12.0,64,0.00,,,0.00,,2013-03-16 19:22:00,
2013-03-16 14:32:00,43.0,32.0,30.06,North,360,4.0,10.0,64,0.00,,,0.00,,2013-03-16 19:32:00,
2013-03-16 14:42:00,43.0,32.0,30.06,North,360,4.0,10.0,64,0.00,,,0.00,,2013-03-16 19:42:00,
2013-03-16 14:52:00,43.0,31.0,30.03,North,5,6.0,15.0,62,0.00,,,0.00,,2013-03-16 19:52:00,
2013-03-16 15:02:00,43.0,30.0,30.03,NNE,25,5.0,21.0,61,0.00,,,0.00,,2013-03-16 20:02:00,
2013-03-16 15:12:00,43.0,30.0,30.03,NNE,25,5.0,21.0,61,0.00,,,0.00,,2013-03-16 20:12:00,
2013-03-16 15:22:00,43.0,30.0,30.04,NNE,13,4.0,12.0,61,0.00,,,0.00,,2013-03-16 20:22:00,
2013-03-16 15:32:00,43.0,31.0,30.04,NNW,341,4.0,13.0,62,0.00,,,0.00,,2013-03-16 20:32:00,
2013-03-16 15:42:00,43.0,31.0,30.04,NNW,341,4.0,13.0,62,0.00,,,0.00,,2013-03-16 20:42:00,
2013-03-16 15:52:00,42.0,30.0,30.04,NE,49,4.0,13.0,62,0.00,,,0.00,,2013-03-16 20:52:00,
2013-03-16 16:02:00,42.0,30.0,30.04,ENE,59,4.0,12.0,63,0.00,,,0.00,,2013-03-16 21:02:00,
2013-03-16 16:12:00,42.0,30.0,30.04,ENE,59,4.0,12.0,63,0.00,,,0.00,,2013-03-16 21:12:00,
2013-03-16 16:22:00,42.0,30.0,30.04,NNE,31,4.0,13.0,63,0.00,,,0.00,,2013-03-16 21:22:00,
2013-03-16 16:33:00,42.0,30.0,30.04,North,355,2.0,13.0,63,0.00,,,0.00,,2013-03-16 21:33:00,
2013-03-16 16:43:00,42.0,30.0,30.04,North,355,2.0,13.0,63,0.00,,,0.00,,2013-03-16 21:43:00,
2013-03-16 16:52:00,42.0,30.0,30.05,NE,45,3.0,11.0,62,0.00,,,0.00,,2013-03-16 21:52:00,
2013-03-16 17:03:00,42.0,30.0,30.05,NNE,32,5.0,13.0,62,0.00,,,0.00,,2013-03-16 22:03:00,
2013-03-16 17:12:00,42.0,30.0,30.05,NNE,32,5.0,13.0,62,0.00,,,0.00,,2013-03-16 22:12:00,
2013-03-16 17:22:00,42.0,30.0,30.05,NNE,13,3.0,13.0,63,0.00,,,0.00,,2013-03-16 22:22:00,
2013-03-16 17:33:00,41.0,30.0,30.06,NNW,335,2.0,12.0,64,0.00,,,0.00,,2013-03-16 22:33:00,
2013-03-16 17:42:00,41.0,30.0,30.06,NNW,335,2.0,12.0,64,0.00,,,0.00,,2013-03-16 22:42:00,
2013-03-16 17:52:00,41.0,30.0,30.06,NW,319,2.0,12.0,64,0.00,,,0.00,,2013-03-16 22:52:00,
2013-03-16 18:02:00,41.0,29.0,30.06,NE,40,4.0,11.0,63,0.00,,,0.00,,2013-03-16 23:02:00,
2013-03-16 18:13:00,41.0,29.0,30.06,NE,40,4.0,11.0,63,0.00,,,0.00,,2013-03-16 23:13:00,
2013-03-16 18:22:00,41.0,29.0,30.05,NNW,343,3.0,11.0,63,0.00,,,0.00,,2013-03-16 23:22:00,
2013-03-16 18:33:00,41.0,29.0,30.05,North,11,3.0,10.0,63,0.00,,,0.00,,2013-03-16 23:33:00,
2013-03-16 18:42:00,41.0,29.0,30.05,North,11,3.0,10.0,63,0.00,,,0.00,,2013-03-16 23:42:00,
2013-03-16 18:52:00,41.0,29.0,30.05,NNE,13,3.0,12.0,63,0.00,,,0.00,,2013-03-16 23:52:00,
2013-03-16 19:02:00,41.0,30.0,30.06,North,11,3.0,13.0,64,0.00,,,0.00,,2013-03-17 00:02:00,
2013-03-16 19:12:00,41.0,30.0,30.06,North,11,3.0,13.0,64,0.00,,,0.00,,2013-03-17 00:12:00,
2013-03-16 19:22:00,41.0,30.0,30.06,North,11,3.0,13.0,64,0.00,,,0.00,,2013-03-17 00:22:00,
2013-03-16 19:32:00,40.0,29.0,30.07,NE,37,2.0,10.0,64,0.00,,,0.00,,2013-03-17 00:32:00,
2013-03-16 19:42:00,40.0,29.0,30.07,NE,37,2.0,10.0,64,0.00,,,0.00,,2013-03-17 00:42:00,
2013-03-16 19:52:00,40.0,29.0,30.07,NE,44,7.0,15.0,65,0.00,,,0.00,,2013-03-17 00:52:00,
2013-03-16 20:02:00,39.0,29.0,30.08,ENE,71,4.0,17.0,66,0.00,,,0.00,,2013-03-17 01:02:00,
2013-03-16 20:12:00,39.0,29.0,30.08,ENE,71,4.0,17.0,66,0.00,,,0.00,,2013-03-17 01:12:00,
2013-03-16 20:22:00,39.0,29.0,30.08,NE,40,5.0,12.0,66,0.00,,,0.00,,2013-03-17 01:22:00,
2013-03-16 20:32:00,39.0,29.0,30.08,ENE,58,5.0,16.0,67,0.00,,,0.00,,2013-03-17 01:32:00,
2013-03-16 20:42:00,39.0,29.0,30.08,ENE,58,5.0,16.0,67,0.00,,,0.00,,2013-03-17 01:42:00,
2013-03-16 20:52:00,38.0,28.0,30.08,NE,48,5.0,14.0,66,0.00,,,0.00,,2013-03-17 01:52:00,
2013-03-16 21:02:00,38.0,28.0,30.09,NE,38,3.0,12.0,67,0.00,,,0.00,,2013-03-17 02:02:00,
2013-03-16 21:12:00,38.0,28.0,30.09,NE,38,3.0,12.0,67,0.00,,,0.00,,2013-03-17 02:12:00,
2013-03-16 21:22:00,38.0,28.0,30.10,North,5,3.0,13.0,67,0.00,,,0.00,,2013-03-17 02:22:00,
2013-03-16 21:33:00,37.0,27.0,30.10,NE,38,5.0,12.0,67,0.00,,,0.00,,2013-03-17 02:33:00,
2013-03-16 21:42:00,37.0,27.0,30.10,NE,38,5.0,12.0,67,0.00,,,0.00,,2013-03-17 02:42:00,
2013-03-16 21:52:00,37.0,27.0,30.10,NE,41,2.0,15.0,67,0.00,,,0.00,,2013-03-17 02:52:00,
2013-03-16 22:02:00,37.0,27.0,30.10,NNE,26,7.0,15.0,67,0.00,,,0.00,,2013-03-17 03:02:00,
2013-03-16 22:12:00,37.0,27.0,30.10,NNE,26,7.0,15.0,67,0.00,,,0.00,,2013-03-17 03:12:00,
2013-03-16 22:22:00,36.0,26.0,30.10,NNE,28,3.0,13.0,67,0.00,,,0.00,,2013-03-17 03:22:00,
2013-03-16 22:33:00,36.0,26.0,30.11,NNW,346,3.0,12.0,66,0.00,,,0.00,,2013-03-17 03:33:00,
2013-03-16 22:43:00,36.0,26.0,30.11,NNW,346,3.0,12.0,66,0.00,,,0.00,,2013-03-17 03:43:00,
2013-03-16 22:52:00,36.0,26.0,30.11,NNW,346,3.0,12.0,66,0.00,,,0.00,,2013-03-17 03:52:00,
2013-03-16 23:03:00,36.0,26.0,30.11,NE,49,2.0,15.0,67,0.00,,,0.00,,2013-03-17 04:03:00,
2013-03-16 23:12:00,36.0,26.0,30.11,NE,49,2.0,15.0,67,0.00,,,0.00,,2013-03-17 04:12:00,
2013-03-16 23:23:00,36.0,26.0,30.11,NE,46,7.0,15.0,66,0.00,,,0.00,,2013-03-17 04:23:00,
2013-03-16 23:32:00,35.0,25.0,30.12,NE,42,5.0,15.0,67,0.00,,,0.00,,2013-03-17 04:32:00,
2013-03-16 23:42:00,35.0,25.0,30.12,NE,42,5.0,15.0,67,0.00,,,0.00,,2013-03-17 04:42:00,
2013-03-16 23:53:00,35.0,26.0,30.13,NE,45,4.0,13.0,68,0.00,,,0.00,,2013-03-17 04:53:00,